User: anonymous   Login
Location: Trois-Rivi�res
(46.3500°N, 72.5500°W)
Time: 12:29:51
(UTC-04:00)
Language:

Hubble Space Telescope - Orbit

View from above orbital plane
View from above orbital plane
View from above satellite
View from above satellite

Ground track
Ground track

The orbit data is extracted from the following two-line orbital elements,

1 20580U 90037B   18172.16164840  .00000398  00000-0  13343-4 0  9991
2 20580  28.4698  88.8315 0002759 178.8373 326.6885 15.09053713346079
Epoch (UTC): 21 June 2018 03:52:46
Eccentricity: 0.0002759
inclination: 28.4698°
perigee height: 537 km
apogee height: 541 km
right ascension of ascending node: 88.8315°
argument of perigee: 178.8373°
revolutions per day: 15.09053713
mean anomaly at epoch: 326.6885°
orbit number at epoch: 34607

The dashed part of the orbit path shows where the satellite is in the earth's shadow,  

DLR